Wiley Ford, WV

4:08 AM EST on January 19, 2017 (GMT -0500)
Greater Cumberland Regional

Weather History for KCBE - April, 2014

Change the Weather History Date:

Sunday, April 13, 2014

  Actual Average (KMRB) Record (KMRB)
Temperature  
Mean Temperature 70 °F -  
Max Temperature 89 °F 64 °F 87 °F (1945)
Min Temperature 50 °F 38 °F 21 °F (1990)
Cooling Degree Days 4    
Growing Degree Days 20 (Base 50)    
Moisture  
Dew Point 44 °F    
Average Humidity 45    
Maximum Humidity 82    
Minimum Humidity 16    
Precipitation  
Precipitation 0.00 in - - ()
Sea Level Pressure  
Sea Level Pressure 30.03 in    
Wind  
Wind Speed 4 mph (South)    
Max Wind Speed 17 mph    
Max Gust Speed 29 mph    
Visibility 10 miles    
Events      
Averages and records for this station are not official NWS values.
T = Trace of Precipitation, MM = Missing Value Source: NWS Daily Summary

Daily Weather History Graph

Daily Weather History Graph

Search for Another Location

Airport or City:

Trip Planner

Search our weather history database for the weather conditions in past years. The results will help you decide how hot, cold, wet, or windy it might be!

Date:

Astronomy

Apr. 13, 2014 Rise Set
Actual Time 6:40 AM EDT 7:51 PM EDT
Civil Twilight 6:12 AM EDT 8:18 PM EDT
Nautical Twilight 5:39 AM EDT 8:52 PM EDT
Astronomical Twilight 5:05 AM EDT 9:26 PM EDT
Moon 6:27 PM EDT (4/13) 5:38 AM EDT (4/13)
Length of Visible Light 14h 05m
Length of Day
13h 10m
Waxing Gibbous, 97% of the Moon is Illuminated
Apr 13
Waxing Gibbous
Apr 15
Full
Apr 22
Last Quarter
Apr 29
New
May 6
First Quarter

Hourly Weather History & Observations

Time (EDT) Temp. Dew Point Humidity Pressure Visibility Wind Dir Wind Speed Gust Speed Precip Events Conditions
12:04 AM 62.6 °F 44.6 °F 52% 30.09 in 10.0 mi WSW 3.5 mph - N/A   Clear
12:24 AM 62.6 °F 44.6 °F 52% 30.09 in 10.0 mi SW 3.5 mph - N/A   Clear
12:45 AM 60.8 °F 42.8 °F 52% 30.09 in 10.0 mi Calm Calm - N/A   Clear
1:05 AM 60.8 °F 42.8 °F 52% 30.08 in 10.0 mi Calm Calm - N/A   Clear
1:25 AM 59.0 °F 42.8 °F 55% 30.08 in 10.0 mi Calm Calm - N/A   Clear
1:45 AM 59.0 °F 42.8 °F 55% 30.08 in 10.0 mi Calm Calm - N/A   Clear
2:05 AM 57.2 °F 42.8 °F 59% 30.07 in 10.0 mi Calm Calm - N/A   Clear
2:25 AM 57.2 °F 42.8 °F 59% 30.07 in 10.0 mi Calm Calm - N/A   Clear
2:45 AM 57.2 °F 42.8 °F 59% 30.07 in 10.0 mi NW 4.6 mph - N/A   Clear
3:05 AM 57.2 °F 42.8 °F 59% 30.07 in 10.0 mi NNW 3.5 mph - N/A   Clear
3:25 AM 55.4 °F 42.8 °F 63% 30.07 in 10.0 mi Calm Calm - N/A   Clear
3:45 AM 53.6 °F 44.6 °F 72% 30.07 in 10.0 mi Calm Calm - N/A   Clear
4:05 AM 53.6 °F 44.6 °F 72% 30.08 in 10.0 mi Calm Calm - N/A   Clear
4:25 AM 53.6 °F 44.6 °F 72% 30.08 in 10.0 mi Calm Calm - N/A   Clear
4:45 AM 53.6 °F 44.6 °F 72% 30.08 in 10.0 mi Calm Calm - N/A   Clear
5:05 AM 51.8 °F 44.6 °F 76% 30.08 in 10.0 mi Calm Calm - N/A   Clear
5:25 AM 51.8 °F 44.6 °F 76% 30.09 in 10.0 mi Calm Calm - N/A   Clear
5:45 AM 51.8 °F 44.6 °F 76% 30.10 in 10.0 mi Calm Calm - N/A   Clear
6:05 AM 51.8 °F 44.6 °F 76% 30.10 in 10.0 mi Calm Calm - N/A   Clear
6:25 AM 50.0 °F 44.6 °F 82% 30.10 in 10.0 mi Calm Calm - N/A   Clear
6:45 AM 50.0 °F 44.6 °F 82% 30.11 in 10.0 mi Calm Calm - N/A   Clear
7:05 AM 51.8 °F 44.6 °F 76% 30.11 in 10.0 mi Calm Calm - N/A   Clear
7:25 AM 51.8 °F 44.6 °F 76% 30.12 in 10.0 mi Calm Calm - N/A   Clear
7:45 AM 51.8 °F 46.4 °F 82% 30.13 in 10.0 mi Calm Calm - N/A   Clear
8:05 AM 53.6 °F 46.4 °F 77% 30.13 in 10.0 mi Calm Calm - N/A   Clear
8:25 AM 53.6 °F 46.4 °F 77% 30.13 in 10.0 mi Calm Calm - N/A   Clear
8:45 AM 55.4 °F 46.4 °F 72% 30.13 in 10.0 mi Calm Calm - N/A   Clear
9:05 AM 59.0 °F 46.4 °F 63% 30.12 in 10.0 mi Calm Calm - N/A   Clear
9:26 AM 60.8 °F 50.0 °F 68% 30.12 in 10.0 mi Calm Calm - N/A   Clear
9:46 AM 64.4 °F 50.0 °F 59% 30.12 in 10.0 mi Calm Calm - N/A   Clear
10:06 AM 68.0 °F 48.2 °F 49% 30.12 in 10.0 mi Calm Calm - N/A   Clear
10:26 AM 69.8 °F 48.2 °F 46% 30.11 in 10.0 mi Calm Calm - N/A   Clear
10:46 AM 73.4 °F 50.0 °F 44% 30.10 in 10.0 mi South 4.6 mph - N/A   Clear
11:06 AM 77.0 °F 46.4 °F 34% 30.09 in 10.0 mi SSE 5.8 mph - N/A   Clear
11:26 AM 78.8 °F 46.4 °F 32% 30.08 in 10.0 mi SW 15.0 mph 28.8 mph N/A   Clear
11:46 AM 80.6 °F 44.6 °F 28% 30.07 in 10.0 mi SSW 13.8 mph 20.7 mph N/A   Clear
12:06 PM 80.6 °F 44.6 °F 28% 30.06 in 10.0 mi SSW 12.7 mph 23.0 mph N/A   Clear
12:26 PM 80.6 °F 44.6 °F 28% 30.05 in 10.0 mi SW 9.2 mph 18.4 mph N/A   Clear
12:46 PM 80.6 °F 44.6 °F 28% 30.03 in 10.0 mi South 11.5 mph 18.4 mph N/A   Clear
1:06 PM 82.4 °F 44.6 °F 26% 30.02 in 10.0 mi South 13.8 mph 20.7 mph N/A   Clear
1:26 PM 82.4 °F 44.6 °F 26% 30.01 in 10.0 mi South 15.0 mph 19.6 mph N/A   Clear
1:46 PM 84.2 °F 44.6 °F 25% 29.99 in 10.0 mi SSE 11.5 mph 19.6 mph N/A   Clear
2:06 PM 86.0 °F 42.8 °F 22% 29.99 in 10.0 mi SSE 15.0 mph 21.9 mph N/A   Clear
2:26 PM 86.0 °F 42.8 °F 22% 29.98 in 10.0 mi South 10.4 mph 20.7 mph N/A   Clear
2:46 PM 87.8 °F 41.0 °F 19% 29.96 in 10.0 mi SSE 16.1 mph 24.2 mph N/A   Clear
3:06 PM 86.0 °F 41.0 °F 20% 29.96 in 10.0 mi SSE 17.3 mph 24.2 mph N/A   Clear
3:26 PM 87.8 °F 41.0 °F 19% 29.95 in 10.0 mi SSW 13.8 mph 19.6 mph N/A   Clear
3:46 PM 87.8 °F 37.4 °F 17% 29.94 in 10.0 mi South 13.8 mph 21.9 mph N/A   Clear
4:06 PM 87.8 °F 37.4 °F 17% 29.93 in 10.0 mi SSE 12.7 mph 18.4 mph N/A   Clear
4:26 PM 87.8 °F 37.4 °F 17% 29.93 in 10.0 mi South 13.8 mph 20.7 mph N/A   Clear
4:46 PM 87.8 °F 37.4 °F 17% 29.93 in 10.0 mi South 17.3 mph 23.0 mph N/A   Clear
5:06 PM 89.6 °F 37.4 °F 16% 29.92 in 10.0 mi SSE 13.8 mph 19.6 mph N/A   Clear
5:26 PM 87.8 °F 37.4 °F 17% 29.92 in 10.0 mi South 16.1 mph 19.6 mph N/A   Clear
5:46 PM 87.8 °F 35.6 °F 16% 29.92 in 10.0 mi South 16.1 mph 21.9 mph N/A   Clear
6:06 PM 87.8 °F 41.0 °F 19% 29.93 in 10.0 mi SSE 16.1 mph - N/A   Clear
6:27 PM 86.0 °F 42.8 °F 22% 29.93 in 10.0 mi SSE 10.4 mph 16.1 mph N/A   Clear
6:47 PM 86.0 °F 42.8 °F 22% 29.92 in 10.0 mi SSE 10.4 mph - N/A   Clear
7:07 PM 82.4 °F 42.8 °F 25% 29.92 in 10.0 mi SSE 8.1 mph - N/A   Clear
7:27 PM 82.4 °F 42.8 °F 25% 29.93 in 10.0 mi SSE 9.2 mph - N/A   Clear
7:47 PM 80.6 °F 42.8 °F 26% 29.93 in 10.0 mi South 11.5 mph - N/A   Clear
8:07 PM 80.6 °F 42.8 °F 26% 29.93 in 10.0 mi South 8.1 mph - N/A   Clear
8:27 PM 78.8 °F 44.6 °F 30% 29.94 in 10.0 mi SSE 5.8 mph - N/A   Clear
8:47 PM 78.8 °F 46.4 °F 32% 29.94 in 10.0 mi SSE 6.9 mph - N/A   Clear
9:07 PM 77.0 °F 46.4 °F 34% 29.95 in 10.0 mi SSE 6.9 mph - N/A   Clear
9:27 PM 75.2 °F 46.4 °F 36% 29.95 in 10.0 mi SSE 6.9 mph - N/A   Clear
9:47 PM 75.2 °F 46.4 °F 36% 29.95 in 10.0 mi SSE 6.9 mph - N/A   Clear
10:07 PM 73.4 °F 46.4 °F 38% 29.96 in 10.0 mi South 5.8 mph - N/A   Clear
10:27 PM 71.6 °F 46.4 °F 41% 29.96 in 10.0 mi South 4.6 mph - N/A   Clear
10:47 PM 71.6 °F 46.4 °F 41% 29.96 in 10.0 mi South 5.8 mph - N/A   Clear
11:07 PM 71.6 °F 46.4 °F 41% 29.96 in 10.0 mi South 4.6 mph - N/A   Clear
11:27 PM 71.6 °F 46.4 °F 41% 29.96 in 10.0 mi South 5.8 mph - N/A   Clear
11:47 PM 71.6 °F 48.2 °F 43% 29.96 in 10.0 mi South 8.1 mph - N/A   Clear